Showing default

OTP-2, 63235

Orbit data source: Space-Track

OTP-2, 63235 is a payload satellite owned by Rogue Space (US) in SSO that was launched on Sat, 15 Mar 2025 UTC via an FALCON 9 launch vehicle from the Air Force Western Test Range (AFWTR). Payload-class satellites include a variety of spacecraft equipped with specific instruments for various scientific and technological missions. These include communications satellites like Starlink; space stations such as the ISS; scientific satellites like the Hubble; Earth observation satellites from companies like Planet Labs, Umbra, and HawkEye 360; GPS; miniature CubeSats for education and research; and military/defense satellites.

Loading next visibility...
Identifier
63235, 2025-052AB
Orbit
SSO
Country
Flag of USUS
Related business
Manufacturer
Rogue Space
Mission
Operational Commercial Technology
Bus & Motor
CUBESAT 8U, Unknown motor
Mass
11 kg wet, 11 kg dry
Launch date (UTC)
2025-03-15 (11 months ago)
Launch vehicle
FALCON 9
Launch site
Air Force Western Test Range (AFWTR)
Object type
Payload
Rocket body
Debris
Shape & HBR
Box + 2 Pan, 0.2 m
Radar Cross Section
0.055 m², Small (<0.1 m²)

Expand to show TLE details & history
Last TLE update: 5 hours ago

TLE from 5 hours ago
0 OTP-2
1 63235U 25052AB  26037.61178234  .00010379  00000-0  45919-3 0  9994
2 63235  97.4024 292.0544 0004488 260.7105  99.3623 15.21854786 49998
Epoch: 2026-02-06T14:40Z
TLE epoch observation values (Epoch: 2026-02-06T14:40:57.994Z)
Latitude
-0.00007°
Longitude
-64.9344°
Altitude
503.843 km
Speed
7.612 km/s
True Right ascension
19h 28m 13s
True Declination
0° 00' 00"
Sunlit
Object was in daylight at epoch
Visualization orbit readout
Latitude
Unknown
Longitude
Unknown
Altitude
Unknown
Speed
Unknown
Apparent Right ascension
Unknown
Apparent Declination
Unknown
Sunlit
N/A
Visualization observer readout
Local Sidereal Time
22:01:31
Azimuth
Unknown
Elevation
Unknown
Doppler factor
Unknown
Orbital elements
Apogee altitude
500.295 km
Perigee altitude
494.124 km
Semi-major axis
6,875.346 km
Eccentricity
0.00045
Inclination
97.4024°
RAAN
292.0544°
Arg. of periapsis
260.7105°
True anomaly
99.41304°
Mean anomaly
99.3623°
Eccentric anomaly
99.38767°
Mean motion
3.80716 °/min
Orbital period
94.56 mins
BSTAR
0.00045919
Loading maneuver chart data...
Computing Atmospheric mass density...
Loading historical data...
Loading historical data...
Loading historical data...
Loading historical data...
Loading historical data...
Loading historical data...
Loading historical data...

Documentation

Showing up to 5 results
|